Flag for Thailand Weather past 2 weeks in Udon Thani, Thailand

Now
79 °F

Passing clouds.


Feels Like: 82 °F
Forecast: 76 / 82 °F
Wind: 6 mph from East

Location: Udon Thani Airport

Current Time: Jul 8, 2015 at 12:58:58 AM

Latest Report: Jul 7, 2015 at 10:00 PM


Visibility: N/A

Pressure: 29.68 "Hg

Humidity: 89%

Dew point: 75 °F

Location of Udon ThaniLocation

Historic Weather in Udon Thani — Graph

°F

Udon Thani temperature yesterday

Maximum temperature yesterday: 95 °F (at 3:00 PM)
Minimum temperature yesterday: 77 °F (at 5:00 PM)
Average temperature yesterday: 84 °F

Past Weeks' High & Low Weather Summary

 TemperatureHumidityPressure
High100 °F (Jun 30, 4:00 PM)94% (Jul 7, 6:00 AM)29.89 "Hg (Jul 7, 6:00 AM)
Low77 °F (Jul 7, 5:00 PM)35% (Jul 1, 3:00 PM)29.50 "Hg (Jul 6, 5:00 PM)
Average90 °F56%29.68 "Hg
* Reported Jun 23 6:00 AM — Jul 7 10:00 PM, Udon Thani, Weather by CustomWeather, © 2015

Note: Actual official high and low records may vary slightly from our data, if they occured in-between our weather recording intervals... More about our weather records

Advertising

Udon Thani weather history for previous 24 hours

 ConditionsComfort  
Time TempWeatherWind HumidityBarometerVisibility
10:00 PM
Tue, Jul 7
79 °FPassing clouds.6 mph89%29.68 "HgN/A
9:00 PM79 °FPassing clouds.6 mph89%29.65 "HgN/A
8:00 PM79 °FClear.2 mph89%29.62 "Hg10 mi
7:00 PM79 °FPassing clouds.2 mph89%29.59 "HgN/A
6:00 PM77 °FScattered clouds.7 mph94%29.59 "HgN/A
5:00 PM77 °FRain. Cloudy.13 mph94%29.56 "HgN/A
3:00 PM95 °FPassing clouds.6 mph53%29.56 "HgN/A
2:00 PM93 °FPassing clouds.8 mph56%29.59 "HgN/A
1:00 PM91 °FBroken clouds.5 mph56%29.62 "HgN/A
12:00 PM90 °FBroken clouds.6 mph59%29.65 "HgN/A
11:00 AM90 °FPartly sunny.5 mph59%29.65 "HgN/A
10:00 AM88 °FPartly sunny.3 mph70%29.68 "HgN/A
9:00 AM84 °FBroken clouds.2 mph79%29.68 "HgN/A
8:00 AM81 °FPartly sunny.6 mph89%29.68 "HgN/A
7:00 AM79 °FBroken clouds.5 mph94%29.65 "Hg5 mi
6:00 AM79 °FBroken clouds.6 mph94%29.65 "Hg5 mi
Weather by CustomWeather, © 2015

See weather overviewHow to use our weather pages